Date,TemperatureHighF,TemperatureAvgF,TemperatureLowF,DewpointHighF,DewpointAvgF,DewpointLowF,HumidityHigh,HumidityAvg,HumidityLow,PressureMaxIn,PressureMinIn,WindSpeedMaxMPH,WindSpeedAvgMPH,GustSpeedMaxMPH,PrecipitationSumIn
2013-1-1,42.3,38.4,35.6,32.0,27.9,17.6,78,66,43,29.81,29.72,7,2,8,0.00
2013-1-2,55.1,36.5,27.2,33.8,23.7,14.3,84,62,28,29.99,29.78,6,1,6,0.00
2013-1-3,61.9,33.5,21.4,31.4,18.3,14.0,77,56,26,30.01,29.92,12,2,14,0.00
2013-1-4,57.2,34.9,25.6,26.8,19.0,16.0,69,53,27,30.01,29.92,16,5,17,0.00
2013-1-5,50.9,36.8,24.8,27.3,21.2,14.3,66,54,37,30.16,29.95,9,4,9,0.00
2013-1-6,45.7,39.2,29.3,31.7,27.1,22.5,80,62,50,29.97,29.83,14,3,14,0.00
2013-1-7,58.3,39.8,28.3,31.7,26.0,22.5,81,59,33,30.25,29.95,15,3,15,0.00
2013-1-8,64.4,40.6,28.1,36.6,27.0,22.1,79,61,27,30.21,30.12,10,4,10,0.00
2013-1-9,62.6,45.1,29.2,46.7,34.7,24.3,83,68,40,30.23,30.05,16,4,16,0.00
2013-1-10,66.8,47.2,35.8,37.4,30.6,25.1,71,54,30,30.38,30.22,9,2,9,0.00
2013-1-11,46.6,42.9,38.5,42.8,35.5,28.5,93,76,57,30.24,29.90,14,5,14,0.00
2013-1-12,76.9,54.7,39.1,59.0,47.9,37.2,94,80,50,29.97,29.89,9,2,9,0.00
2013-1-13,69.1,58.3,47.0,58.3,52.9,44.6,95,83,63,29.91,29.79,12,5,12,0.00
2013-1-14,62.1,52.8,38.3,56.1,46.3,35.6,92,79,68,30.11,29.79,12,4,12,0.14
2013-1-15,38.7,36.5,34.4,36.3,34.0,32.2,93,91,84,30.14,29.91,7,2,7,0.33
2013-1-16,45.4,38.3,33.1,43.0,36.2,31.1,94,92,89,29.92,29.64,15,3,15,0.09
2013-1-17,43.9,39.6,34.2,40.8,33.0,25.5,93,78,51,29.92,29.78,6,2,6,0.00
2013-1-18,50.8,37.2,27.0,26.8,18.7,10.0,80,50,25,30.23,29.91,16,4,16,0.00
2013-1-19,57.1,38.8,27.7,29.3,24.2,20.2,76,58,29,30.17,29.78,20,9,20,0.00
2013-1-20,65.2,45.5,32.8,34.5,20.2,2.2,68,40,19,29.87,29.68,26,7,26,0.00
2013-1-21,49.9,34.6,25.4,20.6,13.0,6.6,60,42,25,29.87,29.61,32,8,32,0.00
2013-1-22,35.1,21.9,12.6,7.8,-1.1,-5.9,51,38,21,30.02,29.74,26,9,26,0.00
2013-1-23,38.7,21.6,11.5,15.3,2.2,-2.8,77,44,22,30.07,29.85,14,4,14,0.00
2013-1-24,34.4,20.2,11.3,16.0,7.4,-0.4,88,60,32,30.28,29.81,15,2,15,0.00
2013-1-25,22.5,17.6,9.9,16.8,9.9,0.5,81,72,51,30.27,29.80,22,5,22,0.00
2013-1-26,44.3,28.0,18.5,26.6,19.1,13.9,85,70,46,30.20,29.80,10,2,10,0.00
2013-1-27,41.6,31.7,21.2,28.3,20.2,14.8,77,63,44,30.33,30.19,12,3,12,0.00
2013-1-28,56.2,40.8,31.1,46.7,35.1,23.4,91,81,64,30.21,29.90,18,8,18,0.02
2013-1-29,75.1,58.7,45.5,56.1,49.3,42.8,93,72,47,29.95,29.78,19,6,19,0.00
2013-1-30,67.7,59.0,53.8,60.3,54.3,47.8,95,85,74,29.78,29.14,26,8,26,1.84
2013-1-31,55.8,37.7,28.8,52.9,24.2,14.4,95,58,41,29.69,29.06,30,12,30,0.04
2013-2-1,31.9,23.9,13.1,23.9,8.7,0.7,82,53,35,30.12,29.59,32,6,32,0.00
2013-2-2,32.2,21.7,12.8,23.0,12.7,2.8,87,69,39,30.12,29.77,18,6,19,0.00
2013-2-3,39.8,30.6,26.3,31.4,21.6,10.9,88,71,51,29.77,29.59,28,5,28,0.00
2013-2-4,38.0,29.4,20.9,24.7,16.0,9.1,74,57,47,29.86,29.68,19,5,19,0.00
2013-2-5,48.4,39.8,31.0,35.5,31.0,23.1,81,71,58,29.73,29.64,19,4,19,0.00
2013-2-6,64.8,41.6,27.9,35.4,27.7,21.0,83,60,27,30.10,29.72,19,3,19,0.00
2013-2-7,39.8,33.5,26.3,30.1,26.1,21.2,85,74,64,30.17,29.94,12,4,12,0.00
2013-2-8,44.6,35.6,31.1,37.5,28.9,21.5,92,77,60,29.94,29.59,24,4,24,0.02
2013-2-9,56.2,36.6,25.7,21.5,15.9,10.4,63,45,20,30.15,29.80,17,4,17,0.00
2013-2-10,46.4,33.3,19.8,27.4,18.0,12.3,79,55,35,30.21,29.97,19,6,19,0.01
2013-2-11,63.4,49.7,35.6,50.4,36.0,18.1,89,64,24,29.98,29.59,27,11,27,0.00
2013-2-12,69.5,48.2,40.3,26.8,21.6,15.2,51,36,16,29.79,29.70,30,9,30,0.00
2013-2-13,42.8,35.9,31.9,32.9,26.9,18.0,92,71,38,29.75,29.46,6,1,6,0.06
2013-2-14,52.9,38.8,27.2,38.0,27.2,22.3,93,66,38,29.82,29.61,11,3,11,0.03
2013-2-15,56.9,40.2,29.2,38.0,30.5,23.5,90,70,43,29.85,29.71,13,4,13,0.17
2013-2-16,37.1,30.0,23.4,30.7,21.6,14.2,92,71,54,29.80,29.66,6,2,6,0.00
2013-2-17,35.5,25.3,18.7,16.9,7.5,3.4,77,47,32,30.00,29.68,26,8,26,0.00
2013-2-18,46.4,30.6,13.7,22.6,13.1,4.5,71,50,28,30.13,29.90,13,5,13,0.00
2013-2-19,51.5,39.7,34.2,39.8,27.9,15.9,88,64,43,29.90,29.53,30,11,30,0.00
2013-2-20,52.0,34.3,22.7,18.6,14.5,11.1,61,45,24,29.94,29.68,25,8,25,0.00
2013-2-21,51.5,30.9,16.7,21.7,15.0,8.8,71,53,28,30.10,29.91,13,2,13,0.00
2013-2-22,34.4,30.8,27.5,28.6,23.9,16.9,88,75,62,30.13,29.93,12,4,12,0.01
2013-2-23,60.1,40.8,32.8,43.7,34.0,27.6,87,77,50,29.93,29.63,10,3,10,0.02
2013-2-24,60.8,42.4,30.1,40.1,28.1,17.5,94,63,25,29.93,29.63,26,6,26,0.00
2013-2-25,52.2,34.1,20.5,26.6,19.1,13.5,77,55,32,30.02,29.93,8,2,8,0.00
2013-2-26,37.8,33.2,27.4,35.9,27.6,17.9,93,81,62,29.98,29.45,11,3,11,0.73
2013-2-27,58.9,43.3,34.6,42.5,34.3,30.5,93,73,41,29.53,29.39,18,5,21,0.00
2013-2-28,43.6,38.2,32.9,32.1,25.9,23.2,73,61,48,29.58,29.47,16,6,16,0.00
2013-3-1,38.5,35.2,31.3,27.0,24.8,20.5,72,65,57,29.72,29.58,15,2,15,0.00
2013-3-2,37.3,31.6,28.6,23.5,20.2,17.0,77,63,50,29.71,29.63,12,3,13,0.00
2013-3-3,51.8,32.8,24.1,23.9,17.2,12.1,72,54,32,29.77,29.63,19,3,19,0.00
2013-3-4,60.8,34.8,19.8,20.7,13.2,9.1,65,44,17,29.85,29.77,13,2,14,0.00
2013-3-5,50.8,38.5,28.8,31.8,23.9,13.5,90,57,37,29.87,29.54,11,3,11,0.00
2013-3-6,38.0,34.4,30.4,32.9,30.1,26.8,93,84,67,29.87,29.46,14,3,14,0.35
2013-3-7,45.5,38.1,35.1,29.8,27.1,24.8,74,65,47,30.02,29.85,18,4,18,0.04
2013-3-8,49.7,37.1,32.0,29.4,25.4,21.2,77,63,44,30.13,29.98,18,4,18,0.00
2013-3-9,66.1,42.6,25.6,35.2,25.7,20.6,84,55,21,30.17,30.07,7,2,7,0.00
2013-3-10,62.5,45.7,29.9,34.7,28.0,22.8,76,53,31,30.10,29.98,17,6,17,0.00
2013-3-11,56.3,50.3,42.8,49.1,34.8,24.1,86,57,34,30.00,29.67,15,8,15,0.04
2013-3-12,68.2,52.1,36.9,51.0,42.2,26.0,93,71,36,29.82,29.56,20,6,20,0.70
2013-3-13,52.7,37.7,30.1,30.6,23.3,16.0,79,58,30,29.90,29.73,28,7,28,0.00
2013-3-14,53.8,37.0,26.1,23.6,17.2,13.0,65,46,27,29.97,29.88,24,6,24,0.00
2013-3-15,65.7,43.5,27.0,38.1,25.1,13.9,65,49,36,29.92,29.62,20,6,20,0.00
2013-3-16,62.6,49.8,38.7,53.6,41.5,29.8,89,74,53,29.70,29.44,17,5,17,0.10
2013-3-17,38.9,34.6,30.8,35.6,32.2,28.5,93,91,87,30.03,29.70,6,2,6,0.14
2013-3-18,32.8,31.5,30.2,30.7,29.3,28.3,93,91,87,30.05,29.68,0,0,0,0.05
2013-3-19,58.3,42.1,32.0,43.6,25.5,7.2,94,60,21,29.78,29.57,32,8,32,0.37
2013-3-20,52.9,41.9,31.9,23.9,15.1,8.7,55,34,23,29.82,29.58,27,9,27,0.00
2013-3-21,37.8,31.2,23.0,26.1,12.4,8.6,69,46,36,29.73,29.59,20,7,20,0.00
2013-3-22,53.5,38.1,22.7,22.4,16.8,9.4,61,43,27,29.81,29.69,16,5,16,0.00
2013-3-23,56.9,40.4,26.1,26.5,18.6,14.5,62,43,24,29.85,29.71,12,2,12,0.00
2013-3-24,39.1,32.8,29.5,28.5,23.7,17.3,90,70,43,29.79,29.43,6,1,6,0.00
2013-3-25,38.5,33.2,28.8,33.5,29.0,24.3,91,85,67,29.54,29.33,6,1,6,0.46
2013-3-26,48.1,37.1,28.6,33.6,26.7,23.0,83,67,44,29.86,29.54,20,4,20,0.05
2013-3-27,50.9,39.5,29.9,30.3,26.0,22.5,77,59,41,29.97,29.86,19,6,19,0.00
2013-3-28,45.9,39.6,35.1,29.2,25.5,22.9,64,57,48,30.06,29.93,19,5,22,0.00
2013-3-29,57.2,45.0,34.2,33.6,27.0,23.0,73,51,31,30.08,29.96,15,3,15,0.00
2013-3-30,62.3,45.9,28.8,33.9,28.1,23.4,83,53,29,30.04,29.89,11,3,11,0.00
2013-3-31,54.5,46.0,40.0,49.1,38.6,27.5,91,76,55,29.89,29.59,10,3,10,0.13
2013-4-1,61.9,47.7,38.3,45.1,34.5,18.9,81,61,44,29.82,29.62,24,8,24,0.00
2013-4-2,50.4,40.4,30.4,22.7,16.4,10.6,59,39,22,29.98,29.81,23,6,23,0.00
2013-4-3,55.1,39.9,27.4,21.9,15.8,12.6,61,40,20,30.16,29.97,21,4,21,0.00
2013-4-4,44.6,34.5,24.3,31.7,19.9,13.1,92,58,35,30.18,29.85,16,4,16,0.17
2013-4-5,66.4,48.3,33.5,42.1,32.7,27.3,93,61,26,29.88,29.68,15,3,16,0.07
2013-4-6,58.5,46.7,32.4,28.5,22.6,15.2,62,41,21,30.10,29.88,12,4,13,0.00
2013-4-7,68.2,53.8,40.5,44.1,37.0,24.8,73,54,39,30.02,29.81,23,10,23,0.00
2013-4-8,77.0,63.5,49.1,51.4,45.4,40.3,73,54,33,29.93,29.78,18,6,18,0.00
2013-4-9,81.7,69.3,56.9,57.1,52.0,47.9,74,55,39,29.96,29.81,17,6,17,0.00
2013-4-10,88.6,75.2,61.6,59.7,53.4,49.1,65,48,32,29.87,29.67,16,6,16,0.00
2013-4-11,84.6,71.1,57.2,60.8,53.9,47.0,79,56,29,29.75,29.56,16,4,16,0.00
2013-4-12,75.8,66.5,55.1,62.6,53.3,36.7,92,65,34,29.64,29.43,24,8,24,0.50
2013-4-13,71.3,58.7,47.0,41.3,32.4,21.3,63,39,21,29.81,29.64,25,8,25,0.00
2013-4-14,57.1,50.2,40.7,42.5,31.5,25.3,63,49,34,29.93,29.81,7,2,7,0.00
2013-4-15,62.8,55.4,50.8,53.4,49.1,40.7,92,80,58,30.07,29.91,10,4,10,0.14
2013-4-16,73.3,66.1,54.0,60.5,57.4,51.7,93,74,61,30.10,29.95,20,9,20,0.00
2013-4-17,83.0,67.5,58.1,63.7,58.7,54.9,91,75,44,30.05,29.94,14,3,16,0.05
2013-4-18,73.1,65.4,59.9,63.2,57.6,53.6,89,77,58,30.01,29.79,18,5,22,0.00
2013-4-19,72.5,64.8,50.9,63.5,57.0,37.1,92,76,56,29.79,29.47,22,9,22,0.53
2013-4-20,62.3,50.8,40.1,37.8,29.1,23.4,63,44,29,30.14,29.66,25,8,25,0.00
2013-4-21,55.6,44.9,32.8,33.9,27.8,24.0,72,52,34,30.36,30.13,12,3,12,0.00
2013-4-22,60.3,45.2,32.4,36.1,30.2,25.7,79,58,32,30.32,30.13,10,2,10,0.00
2013-4-23,54.7,51.8,48.8,43.1,42.1,41.3,77,70,65,29.95,29.91,4,1,4,0.00
2013-4-24,74.7,60.4,46.1,57.4,48.9,40.3,87,68,42,29.92,29.64,29,8,29,0.01
2013-4-25,63.2,53.0,40.9,41.8,31.3,21.1,68,46,25,30.13,29.87,12,4,12,0.00
2013-4-26,66.1,53.7,39.4,42.7,34.7,26.2,67,49,33,30.26,30.13,9,2,9,0.00
2013-4-27,72.2,58.3,42.8,47.3,40.0,34.2,77,52,34,30.20,30.06,11,3,11,0.00
2013-4-28,57.2,53.3,49.9,50.4,46.3,42.5,92,78,59,30.07,29.93,15,5,15,0.10
2013-4-29,67.0,55.5,49.7,55.6,50.3,46.4,92,83,67,29.95,29.82,8,3,8,0.07
2013-4-30,57.4,56.4,55.3,52.6,52.1,51.7,90,85,83,30.10,30.07,4,2,4,0.00
2013-5-1,72.4,60.7,51.8,52.5,44.8,36.6,91,60,29,30.20,30.09,10,2,10,0.00
2013-5-2,73.8,58.0,42.7,51.0,42.3,36.3,81,58,37,30.22,30.10,10,2,10,0.00
2013-5-3,66.2,55.4,42.1,49.5,43.4,37.6,87,65,47,30.18,30.06,12,1,13,0.00
2013-5-4,67.5,53.1,38.7,49.8,41.5,33.5,85,66,47,30.12,29.97,10,2,10,0.00
2013-5-5,68.0,53.9,39.6,45.7,40.8,34.9,84,63,38,30.03,29.91,11,2,11,0.00
2013-5-6,56.3,52.7,48.4,53.9,48.5,42.9,94,86,68,29.96,29.82,12,3,12,0.16
2013-5-7,60.5,56.3,52.2,57.4,54.2,50.2,95,92,83,29.82,29.73,12,3,12,1.53
2013-5-8,65.9,55.2,49.5,58.0,51.3,47.8,95,87,68,29.83,29.76,10,2,10,0.03
2013-5-9,78.3,61.4,45.7,60.8,50.2,44.1,96,71,34,29.88,29.77,14,3,14,0.06
2013-5-10,80.8,65.5,51.8,61.7,54.9,48.1,93,71,41,29.88,29.72,15,4,15,0.64
2013-5-11,78.3,65.9,58.7,61.7,57.2,50.8,93,75,48,29.74,29.59,14,4,14,0.02
2013-5-12,65.5,57.5,47.9,52.2,37.9,27.8,75,50,30,29.87,29.63,22,6,22,0.00
2013-5-13,61.4,49.1,39.2,35.5,29.7,21.1,73,49,25,30.00,29.86,15,3,15,0.00
2013-5-14,66.8,53.3,32.8,44.4,37.9,29.2,88,58,34,30.03,29.82,8,3,8,0.00
2013-5-15,92.7,70.7,48.8,63.5,49.5,42.0,80,52,24,29.83,29.59,21,5,21,0.00
2013-5-16,88.6,73.6,65.0,61.6,55.8,49.8,78,55,38,29.83,29.68,21,2,22,0.01
2013-5-17,79.9,68.3,56.2,61.9,57.4,52.0,90,70,41,29.96,29.81,12,2,12,0.01
2013-5-18,71.1,65.0,61.2,63.2,60.5,58.1,93,86,74,30.03,29.94,9,2,9,0.00
2013-5-19,70.0,63.0,58.9,64.1,59.6,56.3,93,89,79,30.01,29.91,6,1,6,0.00
2013-5-20,81.5,69.5,62.3,67.8,63.1,59.4,94,81,56,29.94,29.82,10,2,10,0.00
2013-5-21,88.6,72.8,59.4,69.2,64.0,57.4,94,76,47,29.86,29.72,10,2,10,0.01
2013-5-22,70.9,66.8,64.1,67.1,63.3,61.2,92,89,85,29.79,29.75,5,2,5,0.00
2013-5-23,80.1,69.4,61.4,66.3,62.1,58.4,93,79,50,29.75,29.59,12,3,12,0.01
2013-5-24,62.3,56.7,43.6,59.4,44.1,32.0,93,64,43,30.02,29.64,23,6,23,0.00
2013-5-25,68.4,52.5,36.7,39.3,33.7,29.2,77,52,25,30.08,29.97,20,3,20,0.00
2013-5-26,75.4,58.2,41.6,41.1,34.4,26.7,78,46,18,30.07,29.97,12,2,12,0.00
2013-5-27,65.3,56.6,43.2,49.5,41.9,33.1,78,59,41,30.12,30.00,6,1,6,0.00
2013-5-28,88.6,74.8,56.5,63.7,60.0,51.4,83,61,39,30.00,29.89,12,3,12,0.00
2013-5-29,89.3,75.2,62.3,65.3,60.6,56.7,85,63,36,30.00,29.92,11,3,11,0.00
2013-5-30,90.4,76.4,63.7,68.0,61.0,55.3,84,62,32,30.06,29.97,14,3,14,0.00
2013-5-31,87.5,74.9,60.1,64.5,60.7,53.6,90,64,33,30.02,29.88,16,3,16,0.00
2013-6-1,88.4,76.7,65.2,67.1,63.2,59.5,84,65,41,29.91,29.78,14,4,14,0.00
2013-6-2,84.1,74.2,69.3,68.2,63.6,60.1,82,70,56,29.80,29.70,16,3,16,0.00
2013-6-3,86.8,72.9,63.0,65.7,61.2,54.5,89,68,44,29.84,29.69,9,2,9,0.00
2013-6-4,76.3,65.6,54.7,54.7,48.0,40.1,86,56,34,29.98,29.84,12,2,12,0.00
2013-6-5,78.5,67.8,56.3,61.6,54.2,47.6,78,63,44,30.00,29.87,12,3,12,0.00
2013-6-6,67.9,63.5,60.5,61.6,58.2,54.5,93,83,68,29.88,29.69,8,1,8,1.84
2013-6-7,68.4,65.1,62.5,65.6,62.7,60.3,93,92,88,29.69,29.51,9,1,9,0.32
2013-6-8,79.9,69.0,58.7,65.7,60.2,55.4,93,75,45,29.94,29.64,7,1,7,0.03
2013-6-9,78.5,68.5,58.3,69.6,63.1,55.7,92,83,71,30.03,29.91,8,2,8,0.23
2013-6-10,79.9,69.3,65.2,72.2,66.3,62.8,94,91,71,29.95,29.67,12,2,12,1.02
2013-6-11,85.3,72.8,62.3,65.6,61.6,58.0,93,70,47,29.76,29.68,15,3,15,0.01
2013-6-12,93.1,78.0,62.8,69.8,64.8,58.5,87,66,43,29.77,29.66,13,2,13,0.00
2013-6-13,80.1,70.9,64.3,69.9,63.6,54.3,91,78,63,29.69,29.41,29,4,29,0.19
2013-6-14,78.8,68.5,59.8,58.5,54.0,50.5,73,61,42,29.89,29.54,23,4,23,0.00
2013-6-15,86.4,70.2,53.5,60.4,55.0,49.6,90,61,35,29.96,29.85,8,2,8,0.00
2013-6-16,85.9,71.6,59.2,67.0,60.6,54.1,87,69,50,29.90,29.78,14,3,14,0.00
2013-6-17,90.5,74.2,64.8,69.8,65.2,61.6,91,75,46,29.85,29.75,9,2,9,0.24
2013-6-18,74.3,68.0,63.9,67.9,63.7,60.4,93,86,70,29.81,29.68,7,2,7,0.19
2013-6-19,77.2,68.3,59.9,65.3,61.7,58.0,93,80,60,29.99,29.76,9,2,9,0.01
2013-6-20,78.1,70.4,63.0,66.6,62.8,59.9,91,78,62,30.08,29.98,13,3,13,0.00
2013-6-21,85.0,72.2,61.0,68.2,60.6,54.5,84,68,50,30.11,30.05,10,2,10,0.00
2013-6-22,89.1,74.2,60.5,66.2,60.7,56.9,90,66,38,30.10,29.97,12,3,12,0.00
2013-6-25,75.4,74.4,73.1,69.8,69.2,68.6,87,83,80,29.84,29.81,3,1,4,0.00
2013-6-26,86.0,75.1,68.6,73.6,68.8,64.5,91,81,62,29.81,29.71,9,2,9,0.35
2013-6-27,84.6,74.4,67.1,71.8,67.3,64.3,93,79,58,29.73,29.52,11,3,11,0.00
2013-6-28,92.0,76.8,66.8,71.5,64.3,57.2,91,68,35,29.56,29.37,19,4,19,0.01
2013-6-29,85.0,73.1,61.2,68.1,61.8,57.5,90,70,41,29.59,29.43,15,2,15,0.09
2013-6-30,86.0,74.2,65.2,72.6,66.8,62.2,93,79,56,29.72,29.57,13,2,13,0.03
2013-7-1,82.3,74.0,67.9,70.5,67.1,64.7,92,80,60,29.82,29.70,11,2,11,0.01
2013-7-2,73.1,72.0,70.4,68.6,68.1,67.0,91,87,84,30.01,29.82,6,2,6,0.00
2013-7-3,79.2,74.3,70.0,72.2,69.9,67.8,94,86,71,30.08,30.03,8,2,8,0.12
2013-7-4,84.8,76.2,68.4,73.5,69.4,66.6,95,80,62,30.11,30.02,13,3,13,0.01
2013-7-5,85.9,77.0,68.0,72.6,68.8,65.6,93,77,56,30.09,29.99,17,3,17,0.00
2013-7-6,87.8,77.8,69.3,72.8,68.3,65.1,93,74,49,30.07,29.95,13,3,15,0.00
2013-7-7,86.6,73.4,68.6,72.3,67.7,65.5,91,83,61,30.00,29.88,9,2,9,0.53
2013-7-8,85.5,72.8,64.4,70.1,65.8,62.3,95,80,51,30.01,29.93,8,2,8,0.00
2013-7-9,81.9,74.7,68.0,72.6,68.5,63.9,91,81,68,30.00,29.90,7,2,7,0.02
2013-7-10,83.0,75.4,71.3,76.2,70.5,68.1,92,85,71,29.92,29.77,14,2,17,0.00
2013-7-11,85.0,75.2,66.6,72.0,67.9,64.4,93,79,59,29.82,29.75,8,2,8,5.17
2013-7-12,74.7,67.2,63.0,65.2,63.2,61.0,93,87,69,29.93,29.81,8,2,8,0.06
2013-7-13,84.4,73.3,62.6,71.2,66.5,60.9,94,80,61,30.11,29.93,8,2,8,0.19
2013-7-14,85.1,76.3,65.9,71.4,67.9,63.7,95,77,54,30.20,30.11,10,2,10,0.31
2013-7-15,92.9,79.2,66.6,74.1,69.0,64.8,94,73,46,30.21,30.10,6,1,6,0.00
2013-7-16,93.2,80.6,69.1,76.4,71.1,66.1,91,75,52,30.16,30.06,8,2,8,0.00
2013-7-17,93.8,81.4,71.1,77.4,71.9,68.1,91,75,51,30.13,30.00,8,1,9,0.00
2013-7-18,96.8,82.2,71.3,77.8,72.5,68.4,92,74,45,30.04,29.91,6,1,6,0.00
2013-7-19,93.6,78.3,71.1,76.9,70.7,66.1,91,79,53,29.93,29.80,15,2,15,0.02
2013-7-20,92.2,77.7,69.8,74.8,69.6,65.6,93,78,49,29.82,29.72,15,2,15,0.08
2013-7-21,87.8,73.9,66.1,73.6,67.5,63.4,92,81,56,29.86,29.78,25,2,25,0.10
2013-7-22,86.0,75.4,68.2,74.8,69.7,66.1,94,83,65,29.83,29.65,10,2,10,0.01
2013-7-23,91.1,77.4,67.9,71.5,67.7,63.5,94,74,46,29.67,29.56,12,2,12,0.00
2013-7-24,83.9,73.5,67.7,69.1,64.0,56.4,86,73,55,29.81,29.59,10,2,10,0.00
2013-7-25,78.8,68.6,60.1,62.3,57.0,52.1,78,67,54,29.93,29.79,9,2,9,0.00
2013-7-26,82.6,69.3,55.1,63.9,58.4,51.0,92,70,46,29.97,29.87,7,2,7,0.00
2013-7-27,74.2,68.6,62.8,68.7,64.7,60.2,93,87,79,29.91,29.79,13,2,13,0.13
2013-7-28,84.6,73.2,65.5,68.4,64.4,59.5,92,76,51,29.88,29.74,10,2,10,0.01
2013-7-29,81.9,68.6,55.3,59.9,55.7,51.3,90,66,38,30.05,29.88,9,1,9,0.00
2013-7-30,83.7,69.5,55.4,61.6,57.3,51.3,88,67,43,30.10,30.00,8,2,8,0.00
2013-7-31,82.8,67.8,61.4,67.8,62.6,58.1,92,84,54,30.01,29.87,8,1,8,0.06
2013-8-1,82.3,71.3,64.1,70.0,64.7,61.4,94,81,59,29.87,29.70,8,2,8,0.10
2013-8-2,86.2,73.8,60.5,65.9,60.7,56.4,92,66,37,29.85,29.76,10,3,10,0.00
2013-8-3,79.2,69.3,64.1,66.4,61.4,58.2,85,76,61,29.86,29.79,5,2,5,0.00
2013-8-4,83.5,70.6,58.9,62.8,56.9,51.7,93,65,38,29.93,29.82,12,2,12,0.00
2013-8-5,80.3,66.6,54.4,62.7,55.9,49.6,88,70,44,29.98,29.86,8,2,8,0.05
2013-8-6,82.6,71.4,63.4,67.7,63.9,60.4,93,78,55,29.90,29.84,8,2,8,0.16
2013-8-7,81.4,73.8,67.1,71.1,67.6,64.1,92,82,68,29.91,29.84,16,3,16,0.00
2013-8-8,82.3,74.4,69.1,72.7,69.6,66.5,93,85,70,29.88,29.82,10,3,10,0.01
2013-8-9,91.3,78.6,70.4,74.6,69.7,66.0,93,76,51,29.84,29.76,12,4,12,0.00
2013-8-10,83.9,75.7,69.5,72.4,68.7,66.3,91,80,62,29.94,29.84,5,1,5,0.06
2013-8-11,90.4,75.2,68.9,73.0,68.9,65.3,93,82,54,29.96,29.85,8,2,8,0.04
2013-8-12,89.8,72.6,64.4,72.8,66.7,62.5,95,83,52,29.90,29.78,4,1,4,0.00
2013-8-13,89.8,75.0,68.2,70.7,65.7,60.9,94,75,47,29.78,29.63,14,2,14,0.04
2013-8-14,77.2,66.0,55.1,61.5,51.2,45.5,78,60,40,29.99,29.71,13,3,13,0.00
2013-8-15,78.5,62.9,49.0,55.5,50.8,45.5,89,67,39,30.04,29.93,8,1,8,0.00
2013-8-16,81.9,64.8,50.2,58.9,53.8,47.6,92,70,40,30.04,29.96,8,2,8,0.00
2013-8-17,78.1,65.4,51.3,61.0,56.0,48.2,92,73,50,30.10,30.04,8,2,8,0.01
2013-8-18,68.6,63.7,59.4,62.4,59.8,57.1,93,87,79,30.09,30.02,6,1,6,0.48
2013-8-19,79.9,69.0,62.5,69.3,64.5,60.5,94,86,66,30.03,29.90,7,2,7,0.02
2013-8-20,89.5,75.1,66.1,69.9,66.6,63.4,94,77,49,30.03,29.95,7,2,7,0.00
2013-8-21,85.9,71.5,65.0,71.7,66.2,62.2,94,84,55,30.06,29.94,14,2,16,0.48
2013-8-22,86.4,71.6,62.3,70.6,65.4,56.5,95,82,52,29.96,29.83,18,2,18,0.10
2013-8-23,70.9,67.0,59.0,67.9,63.5,56.4,94,89,74,29.99,29.82,13,2,13,0.93
2013-8-24,82.1,67.2,54.2,66.2,58.0,52.7,95,75,45,30.17,29.98,7,1,7,0.01
2013-8-25,83.9,67.0,54.5,63.4,57.5,52.2,93,74,40,30.24,30.11,8,2,8,0.00
2013-8-26,84.8,70.2,57.4,65.6,60.5,55.3,93,74,46,30.15,29.90,7,2,7,0.00
2013-8-27,91.4,75.2,64.4,73.1,66.0,60.0,88,75,48,29.92,29.79,11,2,11,0.00
2013-8-28,77.8,72.4,68.6,74.2,69.0,65.1,94,89,83,29.83,29.67,10,2,10,0.50
2013-8-29,84.1,75.2,67.0,73.1,68.9,63.6,94,82,59,29.89,29.71,9,2,9,0.02
2013-8-30,83.9,72.8,61.9,70.9,66.2,60.5,96,81,58,29.89,29.74,10,3,10,0.01
2013-8-31,88.4,74.7,67.3,73.6,67.7,65.2,94,80,56,29.77,29.68,10,3,10,0.00
2013-9-1,87.1,73.3,64.6,73.0,67.7,63.0,96,84,58,29.74,29.65,15,2,15,0.00
2013-9-2,90.0,76.0,65.2,72.8,68.4,63.4,96,79,53,29.71,29.62,8,2,8,0.01
2013-9-3,89.5,74.8,65.0,67.8,61.9,55.3,91,67,39,29.85,29.63,11,2,11,0.00
2013-9-4,81.7,68.0,54.7,64.0,57.4,50.9,90,70,47,29.96,29.85,6,2,6,0.00
2013-9-5,88.6,68.9,52.2,62.6,55.1,48.9,91,65,33,30.00,29.88,16,3,16,0.00
2013-9-6,76.5,64.7,53.6,56.1,52.5,48.6,88,66,44,30.09,29.96,8,2,8,0.00
2013-9-7,84.4,66.8,51.7,61.5,54.6,49.1,93,68,33,29.99,29.80,7,2,7,0.00
2013-9-8,92.9,74.2,59.0,69.0,61.4,53.3,86,67,41,29.89,29.74,10,2,10,0.00
2013-9-9,79.2,70.4,63.9,66.6,61.5,54.5,90,74,61,30.03,29.89,11,4,11,0.00
2013-9-10,90.4,76.4,65.2,73.2,67.6,62.2,92,76,50,30.05,29.95,10,4,10,0.00
2013-9-11,90.4,78.3,68.4,73.4,68.8,65.6,93,74,52,30.03,29.88,13,3,13,0.00
2013-9-12,89.8,76.6,66.2,72.5,66.1,59.2,94,72,41,29.90,29.64,12,3,12,0.00
2013-9-13,77.4,67.5,58.5,61.9,54.3,46.7,89,64,38,29.82,29.61,20,4,20,0.00
2013-9-14,67.7,57.5,46.1,52.3,45.1,40.3,86,65,45,30.00,29.81,10,2,10,0.00
2013-9-15,75.8,59.8,43.6,57.7,50.6,41.6,94,74,49,30.06,29.91,15,4,15,0.00
2013-9-16,66.4,59.8,51.8,60.3,54.8,48.7,92,84,68,30.08,29.90,9,2,9,0.00
2013-9-17,69.1,57.3,49.0,53.6,49.4,44.3,92,76,52,30.23,30.08,10,2,10,0.01
2013-9-18,71.5,55.6,42.5,53.4,47.4,39.8,93,76,51,30.15,30.00,13,3,13,0.00
2013-9-19,82.1,64.8,54.0,61.3,55.8,49.7,89,74,46,30.02,29.91,8,2,8,0.00
2013-9-20,79.2,66.6,55.6,65.6,60.0,52.6,92,80,60,29.92,29.79,11,3,12,0.00
2013-9-21,68.8,64.8,57.6,64.3,61.5,55.7,94,89,81,29.79,29.54,14,4,14,0.55
2013-9-22,77.4,62.7,52.6,62.6,53.1,45.4,96,74,44,29.81,29.61,8,2,9,0.01
2013-9-23,71.1,56.3,45.7,50.3,45.9,41.8,89,70,45,29.94,29.81,10,2,10,0.00
2013-9-24,81.7,60.7,48.6,56.8,50.1,44.1,90,70,40,29.94,29.79,7,1,7,0.00
2013-9-25,81.7,62.6,47.7,58.6,51.8,45.3,92,70,40,29.83,29.72,7,1,7,0.00
2013-9-26,83.0,64.6,52.4,61.5,50.3,46.8,89,63,32,29.92,29.76,8,2,8,0.00
2013-9-27,77.8,61.9,47.5,58.6,51.1,44.2,90,70,42,30.06,29.92,7,1,8,0.00
2013-9-28,69.1,58.5,49.0,56.5,51.4,46.2,93,78,56,30.14,30.05,8,1,8,0.00
2013-9-29,82.8,62.0,50.0,56.6,50.1,46.4,94,68,35,30.05,29.89,9,2,9,0.00
2013-9-30,84.4,63.2,47.7,57.2,51.5,45.5,92,69,34,29.92,29.82,7,2,7,0.00
2013-10-1,92.0,69.8,58.9,64.1,56.0,52.6,87,64,30,29.95,29.85,12,2,12,0.00
2013-10-2,94.3,68.8,52.0,63.9,56.3,49.4,92,68,34,29.98,29.87,8,2,8,0.00
2013-10-3,83.3,68.3,56.2,63.7,58.2,52.3,89,72,46,29.99,29.89,11,2,11,0.00
2013-10-4,93.6,70.8,57.1,66.6,60.8,54.2,92,73,39,29.97,29.89,8,3,8,0.00
2013-10-5,89.3,72.8,59.0,67.1,61.1,56.2,92,70,40,29.98,29.86,12,3,12,0.00
2013-10-6,84.8,71.9,59.2,65.5,60.8,56.3,92,70,44,29.88,29.74,19,6,19,0.00
2013-10-7,79.9,64.4,51.1,65.5,56.3,42.5,94,77,41,29.92,29.61,16,4,16,0.77
2013-10-8,72.2,55.9,43.2,50.9,43.4,39.9,90,66,34,30.11,29.92,12,2,12,0.00
2013-10-9,60.3,51.9,44.3,48.8,45.3,41.0,91,79,61,30.15,30.05,12,3,12,0.11
2013-10-10,56.7,52.5,49.1,53.3,49.9,46.6,94,91,86,30.05,29.85,10,4,12,0.33
2013-10-11,61.4,56.6,53.1,56.8,53.4,50.5,94,89,80,29.86,29.81,9,3,9,0.04
2013-10-12,58.9,57.8,57.1,56.9,55.6,54.9,93,93,92,30.01,30.00,7,3,13,0.00
2013-10-13,61.2,57.5,55.4,58.0,55.5,54.0,95,93,87,30.13,30.00,9,3,9,0.11
2013-10-14,58.3,55.8,55.3,55.6,54.3,53.0,95,95,89,30.14,30.07,6,2,7,0.03
2013-10-15,74.5,61.9,51.3,59.0,53.8,49.6,95,76,50,30.07,29.92,5,1,5,0.00
2013-10-16,70.4,59.0,48.8,58.2,53.6,46.9,94,83,62,29.92,29.75,11,4,11,0.01
2013-10-17,61.7,59.1,55.6,58.5,55.2,48.0,90,87,75,29.76,29.64,10,2,10,0.05
2013-10-18,77.6,57.9,47.0,49.3,42.3,38.9,81,58,29,29.86,29.71,14,2,14,0.00
2013-10-19,63.2,51.8,41.9,54.0,45.3,37.3,92,79,56,29.82,29.61,15,3,15,0.00
2013-10-20,68.8,50.8,38.5,41.8,35.0,30.9,81,56,31,29.92,29.74,18,3,18,0.00
2013-10-21,68.8,51.3,36.5,45.5,40.3,33.1,88,69,40,29.95,29.77,13,5,15,0.00
2013-10-22,76.1,54.2,44.1,51.8,43.6,37.5,91,70,37,29.77,29.65,16,3,16,0.00
2013-10-23,63.7,46.1,37.8,43.6,35.9,31.4,84,68,44,29.76,29.51,18,2,18,0.00
2013-10-24,61.0,43.2,35.1,34.1,28.6,24.0,76,58,28,29.97,29.76,17,4,17,0.00
2013-10-25,65.2,41.4,28.8,36.1,26.5,23.0,81,59,25,30.13,29.95,11,3,11,0.00
2013-10-26,56.2,41.6,24.8,34.2,26.8,21.8,88,59,33,30.12,29.77,22,6,22,0.00
2013-10-27,73.4,51.4,39.6,40.8,34.2,30.1,77,54,26,29.95,29.80,11,3,15,0.00
2013-10-28,69.1,48.8,34.0,44.4,37.1,29.4,87,66,38,30.09,29.95,9,2,9,0.00
2013-10-29,77.6,53.5,37.1,49.5,41.5,33.9,91,66,35,30.19,30.08,6,1,6,0.00
2013-10-30,75.6,57.2,48.4,59.2,50.6,42.6,91,79,53,30.13,29.96,9,2,10,0.02
2013-10-31,69.5,61.6,53.6,59.5,54.9,51.5,94,79,60,30.00,29.57,22,7,22,0.00
2013-11-1,79.2,65.4,53.8,60.1,51.9,42.5,86,64,32,29.58,29.42,26,8,26,0.17
2013-11-2,74.2,55.6,45.0,48.3,39.7,32.3,84,58,28,29.75,29.52,18,5,19,0.00
2013-11-3,68.0,49.3,35.8,41.4,30.4,22.6,79,51,22,30.22,29.75,14,3,14,0.00
2013-11-4,54.4,38.6,29.3,29.5,24.4,20.5,75,58,36,30.39,30.21,11,2,11,0.00
2013-11-5,54.0,43.2,29.5,42.9,33.9,25.0,84,70,45,30.40,30.24,9,3,9,0.00
2013-11-6,69.8,55.8,47.3,50.8,46.6,41.9,87,72,49,30.24,29.89,21,7,21,0.00
2013-11-7,67.1,52.2,38.9,54.9,41.3,21.8,89,68,35,29.93,29.73,22,6,22,0.05
2013-11-8,60.8,43.6,30.6,31.4,24.3,21.1,72,48,25,30.12,29.92,18,5,18,0.00
2013-11-9,57.6,41.9,25.7,31.5,26.5,21.8,85,57,31,30.12,29.88,20,6,20,0.00
2013-11-10,72.9,50.5,37.1,38.5,28.4,23.6,65,46,21,30.08,29.81,24,7,26,0.00
2013-11-11,62.6,45.9,31.1,33.4,26.0,18.5,77,49,19,30.11,29.83,15,5,15,0.00
2013-11-12,49.7,37.4,27.2,36.1,22.5,13.7,67,55,44,30.21,29.80,17,4,17,0.00
2013-11-13,58.9,37.4,25.4,23.7,15.3,8.2,64,43,20,30.29,30.18,10,3,11,0.00
2013-11-14,61.9,41.8,23.8,23.0,17.5,12.7,68,41,19,30.18,30.03,12,5,12,0.00
2013-11-15,66.2,48.8,33.5,41.3,22.3,13.8,88,39,15,30.10,29.96,13,4,13,0.10
2013-11-16,62.6,50.2,40.7,51.9,46.0,38.0,93,86,65,30.09,30.01,10,3,10,0.05
2013-11-17,62.3,56.8,51.3,57.4,52.9,49.1,93,87,75,30.01,29.56,24,9,24,0.04
2013-11-18,75.4,58.7,44.3,58.0,34.2,23.9,90,43,18,29.81,29.55,30,8,30,0.05
2013-11-19,56.0,41.1,30.4,30.1,25.2,22.2,73,54,32,30.17,29.81,14,3,14,0.00
2013-11-20,56.7,37.5,27.7,28.9,22.9,20.2,81,58,29,30.31,30.16,8,2,8,0.00
2013-11-21,48.6,41.7,31.7,40.7,34.1,21.8,84,74,66,30.32,30.16,12,4,13,0.00
2013-11-22,65.9,55.4,45.4,53.4,48.0,39.9,86,76,63,30.17,29.86,12,6,12,0.00
2013-11-23,65.7,48.6,27.7,47.1,29.1,8.0,80,53,18,30.02,29.86,29,7,29,0.00
2013-11-24,41.2,26.3,15.7,10.2,5.5,1.6,63,42,24,30.30,30.01,28,6,29,0.00
2013-11-25,40.5,26.3,13.3,13.1,9.3,4.3,77,51,24,30.30,30.09,14,5,14,0.00
2013-11-26,37.3,34.0,31.7,35.1,27.7,12.4,95,80,41,30.11,29.47,9,4,9,1.65
2013-11-27,36.5,32.5,24.7,34.7,28.7,11.5,95,87,58,29.89,29.41,23,3,24,0.05
2013-11-28,49.5,33.0,19.8,27.5,17.4,11.8,74,54,31,30.21,29.89,12,3,12,0.00
2013-11-29,51.7,33.4,22.3,31.1,20.7,16.8,85,62,33,30.46,30.20,9,2,9,0.00
2013-11-30,40.1,28.8,20.3,24.7,20.3,14.9,83,71,51,30.45,30.11,13,4,13,0.00
2013-12-1,52.9,37.9,23.8,34.7,26.3,18.9,84,64,41,30.11,29.81,9,4,9,0.00
2013-12-2,64.8,45.3,39.6,42.2,34.1,31.8,77,65,37,29.81,29.65,8,2,8,0.00
2013-12-3,65.3,45.5,34.9,44.0,36.1,30.5,86,71,42,29.81,29.68,6,1,6,0.00
2013-12-4,63.9,50.5,38.3,49.9,43.6,34.5,89,78,59,29.87,29.78,10,4,10,0.00
2013-12-5,70.2,58.6,49.3,57.4,53.3,46.8,93,83,63,29.87,29.76,17,6,17,0.00
2013-12-6,62.3,48.7,37.8,59.9,46.4,35.9,94,92,85,29.97,29.71,13,4,13,1.07
2013-12-7,42.8,35.4,27.0,36.2,30.3,22.1,94,82,65,30.30,29.93,10,2,10,0.01
2013-12-8,30.6,26.5,24.5,29.1,23.4,20.6,94,88,77,30.32,30.06,9,2,9,0.00
2013-12-9,69.1,38.3,29.5,49.7,34.2,28.0,95,87,47,30.06,29.80,8,1,8,0.27
2013-12-10,52.2,34.1,28.4,39.2,25.8,11.2,95,74,45,30.01,29.76,24,4,24,0.21
2013-12-11,45.9,31.3,18.7,26.0,16.3,9.8,72,54,41,30.16,30.00,20,4,20,0.07
2013-12-12,51.5,32.1,20.0,23.2,11.2,0.2,66,45,17,30.18,30.03,19,4,20,0.01
2013-12-13,43.2,31.1,21.6,21.2,15.1,9.8,66,52,35,30.09,29.99,10,4,10,0.00
2013-12-14,36.2,32.3,29.5,31.9,28.0,19.8,93,84,63,30.08,29.56,4,1,4,0.14
2013-12-15,59.6,38.3,29.7,40.0,28.6,21.1,95,71,34,29.75,29.46,28,4,28,0.04
2013-12-16,47.7,35.8,30.4,30.3,25.8,24.4,81,67,46,29.92,29.74,14,2,14,0.00
2013-12-17,54.0,37.2,26.3,38.6,29.4,22.7,90,74,48,29.89,29.69,16,4,20,0.00
2013-12-18,52.4,35.9,29.2,28.6,21.2,17.5,73,56,29,30.00,29.80,15,5,15,0.00
2013-12-19,72.4,46.5,28.4,37.7,25.7,18.4,73,47,25,29.98,29.89,16,5,16,0.00
2013-12-20,63.9,48.8,37.8,37.9,30.6,26.6,67,51,28,29.93,29.81,14,5,14,0.00
2013-12-21,67.7,57.1,46.6,58.3,46.3,35.7,78,67,54,29.86,29.71,18,7,18,0.00
2013-12-22,68.0,61.5,57.2,60.6,56.8,53.9,93,84,69,29.85,29.65,26,9,26,0.35
2013-12-23,59.4,50.0,31.7,57.3,44.9,25.4,95,83,65,30.03,29.76,14,3,14,0.08
2013-12-24,48.6,30.7,19.1,30.1,18.2,6.0,84,62,37,30.23,30.00,20,4,23,0.00
2013-12-25,38.5,24.9,14.6,22.8,12.3,6.8,79,60,40,30.29,30.08,11,4,11,0.00
2013-12-26,59.6,37.3,22.5,31.4,18.2,12.5,69,48,24,30.15,30.00,21,4,21,0.00
2013-12-27,63.2,37.2,24.8,24.7,19.7,15.7,71,51,21,30.20,30.09,13,4,13,0.00
2013-12-28,56.3,41.6,28.8,28.3,23.5,18.8,69,50,30,30.14,29.92,13,5,13,0.00
2013-12-29,49.1,42.0,37.8,46.1,36.9,25.3,94,83,51,29.93,29.43,15,3,24,0.94
2013-12-30,43.6,37.4,29.9,36.5,29.6,24.8,87,74,54,29.94,29.66,10,3,10,0.00
2013-12-31,49.0,35.6,27.2,32.9,21.3,13.8,87,59,33,30.09,29.89,28,6,28,0.00
2014-1-1,54.0,36.8,26.6,30.2,23.0,17.6,76,59,34,30.16,29.88,14,4,14,0.00
2014-1-2,34.4,30.6,27.5,28.5,25.5,22.2,93,81,64,29.89,29.44,10,2,10,0.00